This is the latest recevied weather packets stored in our database for station/object K5NAN. If no packets are shown the sender has not sent any weather packets the latest 10 day(s).
| Time | Temp. | Humidity | Pressure | Rain* | Wind** | Luminosity | Snow |
|---|---|---|---|---|---|---|---|
| 1777249466 | 27.22° C | 70% | 1004.2 hPa | 0 mm | - | 40 W/m² | - |
| 1777249164 | 27.78° C | 70% | 1004.2 hPa | 0 mm | - | 44 W/m² | - |
| 1777248860 | 27.78° C | 69% | 1004.2 hPa | 0 mm | - | 52 W/m² | - |
| 1777248557 | 27.78° C | 69% | 1004.1 hPa | 0 mm | - | 68 W/m² | - |
| 1777248254 | 27.78° C | 69% | 1004.1 hPa | 0 mm | - | 70 W/m² | - |
| 1777247948 | 27.78° C | 70% | 1004.2 hPa | 0 mm | - | 69 W/m² | - |
| 1777247643 | 27.78° C | 69% | 1004.2 hPa | 0 mm | - | 78 W/m² | - |
| 1777247341 | 27.78° C | 69% | 1004 hPa | 0 mm | - | 78 W/m² | - |
| 1777247039 | 27.78° C | 70% | 1004.1 hPa | 0 mm | - | 87 W/m² | - |
| 1777246735 | 27.78° C | 69% | 1004 hPa | 0 mm | - | 97 W/m² | - |
| 1777246431 | 28.33° C | 68% | 1004 hPa | 0 mm | - | 88 W/m² | - |
| 1777246129 | 28.33° C | 68% | 1004.2 hPa | 0 mm | - | 120 W/m² | - |
| 1777245826 | 28.33° C | 68% | 1004.3 hPa | 0 mm | - | 154 W/m² | - |
| 1777245524 | 28.33° C | 68% | 1004.1 hPa | 0 mm | - | 177 W/m² | - |
| 1777245220 | 28.89° C | 68% | 1004 hPa | 0 mm | - | 200 W/m² | - |
| 1777244916 | 28.89° C | 68% | 1003.9 hPa | 0 mm | - | 240 W/m² | - |
| 1777244611 | 28.33° C | 69% | 1004.1 hPa | 0 mm | - | 264 W/m² | - |
| 1777244307 | 28.33° C | 69% | 1004 hPa | 0 mm | - | 141 W/m² | - |
| 1777244006 | 28.33° C | 69% | 1004.1 hPa | 0 mm | - | 249 W/m² | - |
| 1777243702 | 28.33° C | 69% | 1004.2 hPa | 0 mm | - | 292 W/m² | - |
| 1777243399 | 28.33° C | 68% | 1004.5 hPa | 0 mm | - | 127 W/m² | - |
| 1777243095 | 28.89° C | 69% | 1004.3 hPa | 0 mm | - | 149 W/m² | - |
| 1777242792 | 28.89° C | 67% | 1004.2 hPa | 0 mm | - | 344 W/m² | - |
| 1777242489 | 28.89° C | 68% | 1004.2 hPa | 0 mm | - | 403 W/m² | - |
| 1777242185 | 28.89° C | 69% | 1004.2 hPa | 0 mm | - | 409 W/m² | - |
* Rain latest hour (hover to see other rain measurements)
** Current wind speed in m/s (hover to see current wind gust speed)